Location: Archemont
(49.1579°N, 1.7598°E)
Time: 04:16:25
(UTC+00:00)

BlueWalker 3 - Pass Details

Date: 03 March 2024
Orbit: 485 x 495 km, 53.2° (Epoch: 24 April)

Event Time Altitude Azimuth Distance (km) Brightness Sun altitude
Rises 18:38:34 0° 294° (WNW) 2,565 7.0 -10.4°
Reaches altitude 10° 18:40:45 10° 292° (WNW) 1,679 5.9 -10.7°
Maximum altitude 18:44:31 69° 210° (SSW) 525 2.1 -11.3°
Enters shadow 18:47:42 14° 128° (SE) 1,444 3.8 -11.9°
